TimeCDT,TemperatureF,Dew PointF,Humidity,Sea Level PressureIn,VisibilityMPH,Wind Direction,Wind SpeedMPH,Gust SpeedMPH,PrecipitationIn,Events,Conditions,WindDirDegrees,DateUTC
12:15 AM,60.1,48.6,66,29.84,10.0,SSE,6.9,-,N/A,,Clear,150,2013-09-23 05:15:00
12:35 AM,59.4,48.4,67,29.84,10.0,SSE,10.4,-,N/A,,Clear,150,2013-09-23 05:35:00
12:55 AM,58.8,48.4,68,29.84,10.0,SE,9.2,-,N/A,,Clear,140,2013-09-23 05:55:00
1:15 AM,58.3,48.6,70,29.83,10.0,SE,9.2,-,N/A,,Clear,140,2013-09-23 06:15:00
1:35 AM,57.2,48.6,73,29.83,10.0,SE,6.9,-,N/A,,Clear,130,2013-09-23 06:35:00
1:55 AM,56.5,48.4,74,29.83,10.0,SE,8.1,-,N/A,,Clear,140,2013-09-23 06:55:00
2:15 AM,56.3,48.4,75,29.83,10.0,SE,10.4,-,N/A,,Clear,140,2013-09-23 07:15:00
2:35 AM,56.5,48.2,74,29.83,10.0,SSE,9.2,-,N/A,,Clear,150,2013-09-23 07:35:00
2:55 AM,56.3,48.2,74,29.82,10.0,SSE,8.1,-,N/A,,Clear,150,2013-09-23 07:55:00
3:15 AM,55.6,48.2,76,29.81,10.0,SSE,9.2,-,N/A,,Clear,150,2013-09-23 08:15:00
3:35 AM,55.0,48.2,78,29.81,10.0,SE,9.2,-,N/A,,Clear,140,2013-09-23 08:35:00
3:55 AM,54.7,48.2,79,29.81,10.0,SE,8.1,-,N/A,,Clear,140,2013-09-23 08:55:00
4:15 AM,55.6,48.2,76,29.80,10.0,SE,8.1,-,N/A,,Clear,140,2013-09-23 09:15:00
4:35 AM,55.6,48.2,76,29.80,10.0,SSE,10.4,-,N/A,,Clear,150,2013-09-23 09:35:00
4:55 AM,55.9,48.4,76,29.80,10.0,SE,9.2,-,N/A,,Clear,140,2013-09-23 09:55:00
5:15 AM,56.3,48.4,75,29.80,10.0,SSE,10.4,-,N/A,,Clear,150,2013-09-23 10:15:00
5:35 AM,56.3,48.6,75,29.80,10.0,SSE,9.2,-,N/A,,Clear,150,2013-09-23 10:35:00
5:55 AM,55.8,48.7,77,29.80,10.0,SSE,11.5,-,N/A,,Clear,160,2013-09-23 10:55:00
6:15 AM,55.4,48.7,78,29.81,10.0,SSE,9.2,-,N/A,,Clear,150,2013-09-23 11:15:00
6:35 AM,54.9,48.7,80,29.81,10.0,SE,8.1,-,N/A,,Clear,140,2013-09-23 11:35:00
6:55 AM,54.7,48.7,80,29.82,10.0,SSE,9.2,-,N/A,,Clear,150,2013-09-23 11:55:00
7:15 AM,54.7,48.9,81,29.82,10.0,SSE,9.2,-,N/A,,Clear,150,2013-09-23 12:15:00
7:35 AM,54.7,49.1,81,29.83,10.0,SSE,8.1,-,N/A,,Clear,150,2013-09-23 12:35:00
7:55 AM,55.8,49.3,79,29.82,10.0,SSE,11.5,-,N/A,,Clear,150,2013-09-23 12:55:00
8:15 AM,56.8,49.6,77,29.81,10.0,SSE,10.4,-,N/A,,Clear,150,2013-09-23 13:15:00
8:35 AM,58.1,49.8,74,29.81,10.0,SSE,11.5,17.3,N/A,,Clear,150,2013-09-23 13:35:00
8:55 AM,58.5,49.8,73,29.80,10.0,SSE,11.5,-,N/A,,Clear,150,2013-09-23 13:55:00
9:15 AM,60.1,50.4,70,29.80,10.0,SSE,18.4,26.5,N/A,,Clear,150,2013-09-23 14:15:00
9:35 AM,62.4,51.1,66,29.81,10.0,SE,15.0,21.9,N/A,,Clear,140,2013-09-23 14:35:00
9:55 AM,63.5,51.1,64,29.80,10.0,SSE,18.4,24.2,N/A,,Clear,160,2013-09-23 14:55:00
10:15 AM,66.2,52.0,60,29.81,10.0,SSE,15.0,19.6,N/A,,Clear,160,2013-09-23 15:15:00
10:35 AM,68.4,51.8,55,29.81,10.0,South,16.1,25.3,N/A,,Clear,170,2013-09-23 15:35:00
10:55 AM,69.1,52.0,54,29.80,10.0,South,21.9,29.9,N/A,,Clear,180,2013-09-23 15:55:00
11:15 AM,70.9,53.2,54,29.80,10.0,SSE,13.8,20.7,N/A,,Clear,160,2013-09-23 16:15:00
11:35 AM,71.8,52.9,51,29.79,10.0,SSE,18.4,26.5,N/A,,Clear,160,2013-09-23 16:35:00
11:55 AM,72.7,52.5,49,29.78,10.0,SSE,18.4,25.3,N/A,,Clear,150,2013-09-23 16:55:00
12:15 PM,73.6,52.0,47,29.78,10.0,South,18.4,27.6,N/A,,Clear,170,2013-09-23 17:15:00
12:35 PM,74.1,51.1,44,29.78,10.0,South,19.6,31.1,N/A,,Clear,170,2013-09-23 17:35:00
1:15 PM,75.4,50.5,42,29.76,10.0,South,20.7,29.9,N/A,,Clear,170,2013-09-23 18:15:00
1:35 PM,75.2,50.0,41,29.76,10.0,South,18.4,29.9,N/A,,Clear,170,2013-09-23 18:35:00
1:55 PM,76.1,48.9,38,29.74,10.0,SSE,20.7,29.9,N/A,,Clear,150,2013-09-23 18:55:00
2:15 PM,76.3,47.5,36,29.73,10.0,SSE,23.0,32.2,N/A,,Clear,160,2013-09-23 19:15:00
2:35 PM,76.8,49.1,38,29.72,10.0,SE,24.2,32.2,N/A,,Clear,140,2013-09-23 19:35:00
2:55 PM,76.8,48.4,37,29.72,10.0,SSE,21.9,35.7,N/A,,Clear,160,2013-09-23 19:55:00
3:15 PM,77.0,49.8,38,29.72,10.0,South,21.9,31.1,N/A,,Clear,170,2013-09-23 20:15:00
3:35 PM,77.0,49.8,38,29.71,10.0,SSE,19.6,31.1,N/A,,Clear,160,2013-09-23 20:35:00
3:55 PM,77.0,50.4,39,29.71,10.0,SSE,19.6,32.2,N/A,,Clear,150,2013-09-23 20:55:00
4:15 PM,76.6,49.8,39,29.70,10.0,SSE,23.0,32.2,N/A,,Clear,160,2013-09-23 21:15:00
4:35 PM,75.6,50.0,41,29.70,10.0,SSE,21.9,29.9,N/A,,Clear,150,2013-09-23 21:35:00
4:55 PM,74.8,49.3,40,29.71,10.0,SSE,16.1,29.9,N/A,,Clear,160,2013-09-23 21:55:00
5:15 PM,75.9,49.5,39,29.70,10.0,SSE,20.7,25.3,N/A,,Scattered Clouds,150,2013-09-23 22:15:00
5:35 PM,74.3,48.2,40,29.70,10.0,SSE,17.3,28.8,N/A,,Clear,150,2013-09-23 22:35:00
5:55 PM,74.7,48.2,39,29.70,10.0,SE,20.7,25.3,N/A,,Scattered Clouds,140,2013-09-23 22:55:00
6:15 PM,74.5,47.8,39,29.69,10.0,SSE,18.4,28.8,N/A,,Clear,150,2013-09-23 23:15:00
6:35 PM,73.9,47.5,39,29.70,10.0,SSE,15.0,26.5,N/A,,Scattered Clouds,150,2013-09-23 23:35:00
6:55 PM,73.4,48.2,41,29.71,10.0,SSE,16.1,-,N/A,,Mostly Cloudy,150,2013-09-23 23:55:00
7:15 PM,72.9,47.7,41,29.71,10.0,SSE,15.0,23.0,N/A,,Scattered Clouds,150,2013-09-24 00:15:00
7:35 PM,72.1,47.7,42,29.71,10.0,SE,13.8,20.7,N/A,,Clear,140,2013-09-24 00:35:00
7:55 PM,71.1,48.4,44,29.70,10.0,SE,13.8,-,N/A,,Clear,130,2013-09-24 00:55:00
8:15 PM,70.2,48.7,46,29.70,10.0,ESE,9.2,-,N/A,,Scattered Clouds,120,2013-09-24 01:15:00
8:35 PM,67.6,50.2,54,29.70,10.0,SE,11.5,17.3,N/A,,Mostly Cloudy,130,2013-09-24 01:35:00
8:55 PM,67.6,50.0,53,29.70,10.0,SE,10.4,-,N/A,,Mostly Cloudy,130,2013-09-24 01:55:00
9:15 PM,67.6,50.0,53,29.71,10.0,SE,11.5,-,N/A,,Mostly Cloudy,130,2013-09-24 02:15:00
9:35 PM,68.0,50.5,54,29.71,10.0,SE,13.8,-,N/A,,Overcast,130,2013-09-24 02:35:00
9:55 PM,67.6,50.9,55,29.71,10.0,SE,13.8,-,N/A,,Overcast,130,2013-09-24 02:55:00
10:15 PM,68.0,51.4,55,29.70,10.0,SE,15.0,19.6,N/A,,Overcast,140,2013-09-24 03:15:00
10:35 PM,68.5,52.2,56,29.71,10.0,SE,17.3,-,N/A,,Overcast,140,2013-09-24 03:35:00
10:55 PM,69.3,52.3,55,29.69,10.0,SSE,16.1,20.7,N/A,,Overcast,150,2013-09-24 03:55:00
11:15 PM,69.8,52.2,53,29.68,10.0,SSE,20.7,29.9,N/A,,Mostly Cloudy,150,2013-09-24 04:15:00
11:35 PM,69.1,52.2,55,29.69,10.0,SSE,15.0,25.3,N/A,,Mostly Cloudy,160,2013-09-24 04:35:00
11:55 PM,68.9,52.3,55,29.69,10.0,South,13.8,26.5,N/A,,Mostly Cloudy,170,2013-09-24 04:55:00